OPS 0252

Satellite information

Favourite Embed

Satellite Type and Status

PAYLOADIN ORBIT

Key statistics

Satellite OPS 0252 at a glance.

Uptime

15427

Days in orbit

Revolutions

≈ 13.8

Per day

Orbit

LEO

Low Earth Orbit

Inclination

63.3

Latest

Satellite identification and parameters

Extended collection of information and parameters for OPS 0252.

Object identification

Identified? True

Debris? False

Object name: OPS 0252

International designator: 1983-008A

Object number (NORAD): 13791

Object ID (CCSDS): 13791

Country: UNITED STATES OF AMERICA (US)

Current information (Y/N): Y

RCS size: LARGE

Orbital parameters

Period: 104.101 minutes

Inclination: 63.3058 deg

SMA: 7330.436 km

Apoapsis: 1484.081 km

Periapsis: 420.521 km

RAAN: 348.2004 deg

Eccentricy: 0.0725441

Argument of periapsis: 129.0413 deg

Mean anomaly: 237.7529 deg

Mean motion: 13.8327353 rev/day

Mean motion (dot): 0.0000787 rev/day2

B* drag term: 0.00083425 1/REarth

Two-line elements (TLE)

Creation date: May 5, 2025, 2:11 a.m.

Reference frame: TEME

Reference center: EARTH

Epoch: May 4, 2025, 9:35 p.m. UTC

TLE line 0: 0 OPS 0252

TLE line 1: 1 13791U 83008A 25124.89971692 .00007870 00000-0 83425-3 0 9992

TLE line 2: 2 13791 63.3058 348.2004 0725441 129.0413 237.7529 13.83273530 49724

Live tracking on map

Real-time ground track for satellite OPS 0252.

In-orbit conjunctions

There are no conjunctions computed for OPS 0252, at the moment. Check back to stay up to date, as we update our databases every day.

Go to all conjunctions

Associated space launch

The Parcae satellites were passive ELINT satellites. MSD satellites were dispensers of triplets of ocean surveillance satellites.

OPS 0252 was lifted into orbit during the mission ‘Atlas H | Parcae 5A,B,C & MSD 5’, on board a Atlas H space rocket.

The launch took place on Feb. 9, 1983, 1:47 p.m. from Space Launch Complex 3E.

For more information about the launch, click the button.

Launch to space Atlas H | Parcae 5A,B,C & MSD 5
Atlas H | Parcae 5A,B,C & MSD 5

Agency: N/A

Status: Launch Successful

Launch date: Feb. 9, 1983, 1:47 p.m. UTC

Rocket: Atlas H

Launch pad: Space Launch Complex 3E

Location: Vandenberg SFB, CA, USA

...

Latest news about this satellite

There are no fresh news available about this satellite. Check back as we update our databases every day.


Newsletter sign-up

Weekly statistics, charts and insights to help you stay on top of the space industry.